Regional Weather Roundup
Issued by NWS Cleveland, OH

Home | Current Version | Previous Version | Graphics & Text | Print | Product List | Glossary On
Versions: 1 2 3 4 5 6 7 8 9 10 11 12 13 14 15 16 17 18 19 20 21 22 23 24 25 26 27 28 29 30 31 32 33 34 35 36 37 38 39 40 41 42 43 44 45 46 47 48 49 50
000
ASUS41 KCLE 172200
RWRCLE
OHIO REGIONAL WEATHER ROUNDUP
NATIONAL WEATHER SERVICE WILMINGTON, OH
500 PM EST FRI NOV 17 2017

NOTE: "FAIR" INDICATES FEW OR NO CLOUDS BELOW 12,000 FEET WITH NO
SIGNIFICANT WEATHER AND/OR OBSTRUCTIONS TO VISIBILITY.

OHZ001>008-015>018-024>027-034-035-043-044-172300-
   NORTHWEST OHIO

CITY           SKY/WX    TMP DP  RH WIND       PRES   REMARKS
DEFIANCE       FAIR      45  32  60 S8        29.96F
FINDLAY        FAIR      45  32  60 S13       29.97F
TOLEDO EXPRESS FAIR      45  36  70 S7        29.97F
TOLEDO EXEC    FAIR      44  34  67 S10       29.99F
LIMA           FAIR      44  35  70 SE13      29.97F
$$

OHZ009>014-019>023-028>033-038-089-172300-
   NORTHEAST OHIO

CITY           SKY/WX    TMP DP  RH WIND       PRES   REMARKS
CLE-HOPKINS    CLOUDY    44  29  55 S9        30.05F
CLE-LAKEFRONT  FAIR      44  28  53 SE10      30.02F
CUY CO. ARPT   CLOUDY    45  30  57 S16       30.03F
LORAIN-ELYRIA  FAIR      42  27  55 S12       30.02F
ASHTABULA      FAIR      40  29  64 S8        30.06F
AKRON-CANTON   MOCLDY    42  28  57 S13       30.04F
WOOSTER        NOT AVBL
MANSFIELD      FAIR      42  29  59 SE15      30.01F
YOUNGSTOWN     CLOUDY    40  28  62 SE7       30.06F
$$

OHZ042-051>053-060>062-070>072-077>081-172300-
  SOUTHWEST OHIO

CITY           SKY/WX    TMP DP  RH WIND       PRES   REMARKS
CINC-COVINGTON MOCLDY    47  35  63 SE10      29.98F
CINC-LUNKEN    FAIR      49  34  56 SE7       30.01F
HAMILTON       FAIR      50  33  52 VRB3      30.00F
DAYTON         NOT AVBL
WRIGHT-PAT AFB FAIR      48  31  52 SE7       29.99F
DAYTON GENERAL FAIR      47  32  56 SE10      29.98F
WILMINGTON     FAIR      46  34  62 SE8       30.00F
$$

OHZ036-037-039>041-045>050-054>059-063>069-073>076-082>088-172300-
  CENTRAL AND SOUTHEAST OHIO

CITY           SKY/WX    TMP DP  RH WIND       PRES   REMARKS
COLUMBUS       MOCLDY    47  31  53 SE12      30.03F
OSU AIRPORT    FAIR      46  33  60 SE8       30.01F
BOLTON FIELD   CLEAR     45  34  65 SE6       30.03F
RICKENBACK AFB NOT AVBL
NEWARK         FAIR      46  29  51 SE8       30.04F
MARION         FAIR      43  32  65 S14       30.00F
LANCASTER      FAIR      46  32  58 SE8       30.05F
ZANESVILLE     FAIR      44  30  57 S6        30.06F
NEW PHILLY     FAIR      43  30  60 SE6       30.08F
$$



USA.gov is the U.S. government's official web portal to all federal, state and local government web resources and services.